CW2654 Weather Reports


Display with metric or nautical units.
time (UTC)temp
F
wind
direction
speed
MPH
gust
MPH
rain 1hr
in
rain 24hr
in
rain mn
in
humidity
%
barometer
mb
20260505053100 62 134 1.0 8.0 0.00 0.00 0.00 81 1012.6
20260505051552 62 0 0.0 8.0 0.00 0.00 0.00 82 1012.6
20260505041557 59 0 1.0 3.0 0.00 0.00 0.00 89 1011.8
20260505040057 59 106 1.0 6.0 0.00 0.00 0.00 88 1011.9
20260505034550 60 98 1.0 4.0 0.00 0.00 0.00 86 1011.6
20260505033053 62 98 0.0 4.0 0.00 0.00 0.00 83 1011.4
20260505031604 63 0 1.0 6.0 0.00 0.00 0.00 80 1011.3
20260505030054 65 0 0.0 4.0 0.00 0.00 0.00 77 1011.2
20260505024603 66 127 1.0 5.0 0.00 0.00 0.00 75 1011.2
20260505023051 67 0 0.0 3.0 0.00 0.00 0.00 73 1011.0
20260505021555 67 203 1.0 7.0 0.00 0.00 0.00 72 1011.0
20260505020053 68 0 0.0 7.0 0.00 0.00 0.00 70 1011.0
20260505014607 68 171 0.0 6.0 0.00 0.00 0.00 69 1010.9
20260505013057 69 184 1.0 5.0 0.00 0.00 0.00 69 1010.9
20260505011603 69 0 1.0 7.0 0.00 0.00 0.00 68 1011.2
20260505010053 69 0 0.0 8.0 0.00 0.00 0.00 70 1011.3
20260505004554 70 160 0.0 3.0 0.00 0.00 0.00 68 1011.3
20260505003051 70 0 1.0 9.0 0.00 0.00 0.00 66 1011.3
20260505001550 70 213 2.0 8.0 0.00 0.00 0.00 66 1011.3
20260505000109 70 0 1.0 5.0 0.00 0.00 0.00 66 1011.5
20260504234551 70 245 2.0 8.0 0.00 0.00 0.00 67 1011.5
20260504233107 70 221 0.0 5.0 0.00 0.00 0.00 66 1011.4
20260504231555 70 257 1.0 7.0 0.00 0.00 0.00 66 1011.6
20260504230056 70 285 1.0 8.0 0.00 0.00 0.00 66 1011.5
20260504224557 69 155 2.0 8.0 0.00 0.00 0.00 66 1011.9
20260504223122 69 234 3.0 9.0 0.00 0.00 0.00 70 1012.0
20260504221600 69 219 1.0 7.0 0.00 0.00 0.00 69 1012.0
20260504220057 69 0 3.0 8.0 0.00 0.00 0.00 69 1012.3
20260504214554 68 0 0.0 5.0 0.00 0.00 0.00 73 1012.3
20260504213103 68 225 2.0 8.0 0.00 0.00 0.00 70 1012.5
20260504211600 68 0 2.0 9.0 0.00 0.00 0.00 72 1012.7
20260504210057 67 243 2.0 9.0 0.00 0.00 0.00 72 1013.0
20260504204550 66 271 1.0 7.0 0.00 0.00 0.00 74 1013.1
20260504203109 66 243 1.0 6.0 0.00 0.00 0.00 72 1013.0
20260504201559 66 227 1.0 7.0 0.00 0.00 0.00 74 1013.3
20260504200056 65 0 3.0 8.0 0.00 0.00 0.00 75 1013.2
20260504194552 65 185 1.0 6.0 0.00 0.00 0.00 76 1013.5
20260504193048 64 229 2.0 8.0 0.00 0.00 0.00 74 1013.5
20260504191557 64 101 2.0 8.0 0.00 0.00 0.00 75 1013.5
20260504190052 63 169 2.0 8.0 0.00 0.00 0.00 76 1013.8
20260504184551 62 132 2.0 7.0 0.00 0.00 0.00 77 1013.8
20260504183050 62 219 1.0 6.0 0.00 0.00 0.00 78 1013.9
20260504181557 61 0 2.0 5.0 0.00 0.00 0.00 78 1013.8
20260504180051 61 186 1.0 6.0 0.00 0.00 0.00 78 1013.8
20260504174611 59 170 0.0 4.0 0.00 0.00 0.00 82 1013.9
20260504173055 58 247 2.0 8.0 0.00 0.00 0.00 82 1013.6
20260504171555 58 274 1.0 8.0 0.00 0.00 0.00 82 1013.6
20260504090104 55 86 2.0 4.0 0.00 0.00 0.00 86 1009.4
20260504081555 55 108 1.0 4.0 0.00 0.00 0.00 85 1009.3